User: anonymous   Login
Location: Poprad
(49.0500°N, 20.3000°E)
Time: 13:54:25
(UTC+02:00)
Language:

BEESAT - Orbit

View from above orbital plane
View from above orbital plane
View from above satellite
View from above satellite

Ground track
Ground track

The orbit data is extracted from the following two-line orbital elements,

1 35933U 09051C   24103.59177290  .00001151  00000-0  25817-3 0  9992
2 35933  98.4729 346.5707 0005776 160.9180 199.2236 14.58530834773062
Epoch (UTC): 12 April 2024 14:12:09
Eccentricity: 0.0005776
inclination: 98.4729°
perigee height: 694 km
apogee height: 702 km
right ascension of ascending node: 346.5707°
argument of perigee: 160.9180°
revolutions per day: 14.58530834
mean anomaly at epoch: 199.2236°
orbit number at epoch: 77306

The dashed part of the orbit path shows where the satellite is in the earth's shadow,  

DLR